Location: Hickory_CSC
(35.7330°N, 81.3330°W)
Time: 12:10:33
(UTC-04:00)

ISS - All Passes

Search period start: 24 August 2016 00:00
Search period end: 03 September 2016 00:00
Orbit: 402 x 406 km, 51.6° (Epoch: 25 August)

Date Brightness Start Highest point End Pass type
(mag) Time Alt. Az. Time Alt. Az. Time Alt. Az.
24 Aug - 10:18:46 10° SW 10:22:00 60° SE 10:25:15 10° NE daylight
24 Aug - 11:56:35 10° WNW 11:58:43 16° NNW 12:00:53 10° NNE daylight
24 Aug - 16:49:15 10° NNW 16:51:55 22° NNE 16:54:34 10° E daylight
24 Aug - 18:25:26 10° WNW 18:28:26 33° SW 18:31:25 10° SSE daylight
25 Aug - 09:26:53 10° SSW 09:29:43 27° SE 09:32:33 10° ENE daylight
25 Aug - 11:03:20 10° W 11:06:09 26° NNW 11:08:58 10° NNE daylight
25 Aug - 15:57:26 10° N 15:59:19 14° NNE 16:01:11 10° ENE daylight
25 Aug - 17:32:51 10° NW 17:36:08 76° SW 17:39:23 10° SE daylight
26 Aug - 08:35:51 10° SSE 08:37:31 13° SE 08:39:09 10° E daylight
26 Aug - 10:10:28 10° WSW 10:13:39 47° NW 10:16:51 10° NE daylight
26 Aug - 16:40:30 10° NW 16:43:43 49° NE 16:46:54 10° ESE daylight
26 Aug - 18:18:19 10° W 18:19:51 13° SW 18:21:22 10° SSW daylight
27 Aug - 09:17:58 10° SW 09:21:13 80° SE 09:24:31 10° NE daylight
27 Aug - 10:56:14 10° WNW 10:58:03 14° NNW 10:59:52 10° N daylight
27 Aug - 15:48:22 10° NNW 15:51:13 26° NNE 15:54:02 10° E daylight
27 Aug - 17:24:49 10° WNW 17:27:37 26° SW 17:30:24 10° S daylight
28 Aug - 08:25:52 10° SSW 08:28:53 35° SE 08:31:54 10° ENE daylight
28 Aug - 10:02:47 10° W 10:05:24 22° NNW 10:08:02 10° NNE daylight
28 Aug - 14:56:24 10° NNW 14:58:36 16° NNE 15:00:46 10° ENE daylight
28 Aug - 16:32:04 10° NW 16:35:19 57° SW 16:38:30 10° SE daylight
29 Aug - 07:34:25 10° S 07:36:36 17° SE 07:38:48 10° E daylight
29 Aug - 09:09:45 10° WSW 09:12:50 38° NW 09:15:56 10° NNE daylight
29 Aug - 14:04:55 10° N 14:05:53 11° NNE 14:06:50 10° NE daylight
29 Aug - 15:39:38 10° NW 15:42:53 64° NE 15:46:07 10° ESE daylight
30 Aug - 08:17:05 10° SW 08:20:21 79° NW 08:23:38 10° NE daylight
30 Aug - 09:55:52 10° NW 09:57:16 12° NNW 09:58:41 10° N daylight
30 Aug - 14:47:22 10° NNW 14:50:22 32° NE 14:53:21 10° E daylight
30 Aug - 16:24:10 10° W 16:26:41 20° SW 16:29:11 10° S daylight
31 Aug - 07:24:48 10° SSW 07:27:56 45° SE 07:31:06 10° ENE daylight
31 Aug - 09:02:10 10° WNW 09:04:34 18° NNW 09:06:58 10° NNE daylight
31 Aug - 13:55:19 10° NNW 13:57:45 19° NNE 14:00:11 10° ENE daylight
31 Aug - 15:31:12 10° WNW 15:34:21 43° SW 15:37:28 10° SSE daylight
01 Sep - 06:33:03 10° S 06:35:35 21° SE 06:38:10 10° ENE visible
01 Sep - 08:08:58 10° W 08:11:55 31° NW 08:14:54 10° NNE daylight
01 Sep - 13:03:32 10° N 13:05:01 12° NNE 13:06:30 10° NE daylight
01 Sep - 14:38:38 10° NW 14:41:56 83° NE 14:45:12 10° SE daylight
02 Sep - 05:42:55 10° SE 05:43:19 10° SE 05:43:45 10° ESE visible
02 Sep - 07:16:08 10° WSW 07:19:22 61° NW 07:22:37 10° NE daylight
02 Sep - 08:55:33 10° NW 08:56:24 11° NNW 08:57:14 10° N daylight
02 Sep - 13:46:18 10° NW 13:49:25 39° NE 13:52:30 10° ESE daylight
02 Sep - 15:23:30 10° W 15:25:38 16° SW 15:27:44 10° S daylight
